Home   Weather   Hannover   Past weeks

Flag for Germany Past Weather in Hannover, Lower Saxony, Germany — Yesterday and Last 2 Weeks

Now
61 °F

Broken clouds.


Feels Like: 61 °F
Forecast: 51 / 68 °F
Wind: 8 mph from West

Location: Hannover

Current Time: Sep 26, 2016 at 12:28:30 PM

Latest Report: Sep 26, 2016 at 11:50 AM


Visibility: N/A

Pressure: 30.21 "Hg

Humidity: 83%

Dew Point: 55 °F

Location of HannoverLocation

Past Weather in Hannover — Graph

°F

Hannover Temperature Yesterday

Maximum temperature yesterday: 77 °F (at 3:50 PM)
Minimum temperature yesterday: 48 °F (at 7:20 AM)
Average temperature yesterday: 63 °F

High & Low Weather Summary for the Past Weeks

 TemperatureHumidityPressure
High90 °F (Sep 13, 2:20 PM)100% (Sep 21, 3:50 AM)30.30 "Hg (Sep 21, 3:50 AM)
Low43 °F (Sep 24, 6:50 AM)29% (Sep 13, 5:50 PM)29.86 "Hg (Sep 15, 5:50 PM)
Average63 °F70%30.06 "Hg
* Reported Sep 11 11:20 AM — Sep 26 11:20 AM, Hannover, Weather by CustomWeather, © 2016

Note: Actual official high and low records may vary slightly from our data, if they occured in-between our weather recording intervals... More about our weather records

Advertising

Hannover Weather History for the Previous 24 Hours

Scroll right to see more
 ConditionsComfort  
Time TempWeatherWind HumidityBarometerVisibility
11:20 AM
Mon, Sep 26
61 °FBroken clouds.9 mph83%30.21 "HgN/A
10:50 AM59 °FBroken clouds.6 mph88%30.21 "HgN/A
10:20 AM59 °FSunny.6 mph88%30.21 "Hg10 mi
9:50 AM59 °FSunny.5 mph88%30.21 "Hg10 mi
9:20 AM57 °FPassing clouds.3 mph88%30.18 "HgN/A
8:50 AM57 °FSunny.5 mph88%30.18 "Hg10 mi
8:20 AM57 °FSunny.6 mph88%30.18 "Hg10 mi
7:50 AM55 °FSunny.6 mph88%30.18 "Hg10 mi
7:20 AM55 °FSunny.6 mph88%30.18 "Hg10 mi
6:50 AM55 °FClear.6 mph88%30.15 "Hg10 mi
6:20 AM57 °FClear.8 mph82%30.15 "Hg10 mi
5:50 AM57 °FClear.6 mph88%30.15 "Hg10 mi
5:20 AM57 °FClear.7 mph88%30.15 "Hg10 mi
4:50 AM57 °FClear.6 mph88%30.15 "Hg10 mi
4:20 AM57 °FClear.7 mph88%30.15 "Hg10 mi
3:50 AM57 °FClear.7 mph88%30.12 "Hg10 mi
3:20 AM57 °FPassing clouds.6 mph88%30.12 "HgN/A
2:50 AM59 °FPassing clouds.7 mph88%30.12 "HgN/A
2:20 AM59 °FPassing clouds.7 mph88%30.12 "HgN/A
1:50 AM59 °FClear.8 mph88%30.12 "Hg10 mi
1:20 AM59 °FClear.7 mph82%30.12 "Hg10 mi
12:50 AM59 °FPassing clouds.5 mph77%30.09 "HgN/A
12:20 AM61 °FClear.9 mph72%30.09 "Hg10 mi
11:50 PM
Sun, Sep 25
63 °FPassing clouds.8 mph64%30.09 "HgN/A
11:20 PM61 °FClear.5 mph68%30.07 "Hg10 mi
10:50 PM64 °FPassing clouds.5 mph60%30.07 "HgN/A
10:20 PM66 °FPassing clouds.5 mph56%30.07 "HgN/A
9:50 PM66 °FPassing clouds.6 mph56%30.07 "HgN/A
9:20 PM64 °FClear.6 mph60%30.07 "Hg10 mi
8:50 PM68 °FClear.6 mph53%30.04 "Hg10 mi
8:20 PM68 °FClear.6 mph53%30.04 "Hg10 mi
7:50 PM68 °FClear.6 mph53%30.04 "Hg10 mi
7:20 PM72 °FClear.7 mph47%30.04 "Hg10 mi
6:50 PM73 °FSunny.8 mph44%30.04 "Hg10 mi
6:20 PM75 °FSunny.9 mph39%30.04 "Hg10 mi
5:50 PM77 °FSunny.10 mph36%30.04 "Hg10 mi
5:20 PM75 °FSunny.10 mph39%30.04 "Hg10 mi
4:50 PM77 °FSunny.13 mph36%30.04 "Hg10 mi
4:20 PM77 °FSunny.12 mph34%30.04 "Hg10 mi
3:50 PM77 °FPassing clouds.13 mph36%30.04 "HgN/A
3:20 PM75 °FPassing clouds.13 mph41%30.04 "HgN/A
2:50 PM75 °FSunny.14 mph41%30.04 "Hg10 mi
2:20 PM73 °FSunny.14 mph41%30.04 "Hg10 mi
1:50 PM73 °FSunny.14 mph44%30.07 "Hg10 mi
1:20 PM73 °FSunny.14 mph44%30.07 "Hg10 mi
12:50 PM72 °FSunny.14 mph47%30.07 "Hg10 mi
12:20 PM70 °FPassing clouds.13 mph50%30.09 "HgN/A
Weather by CustomWeather, © 2016

See weather overviewHow to use our weather pages